Location: Beloeil
(45.5670°N, 73.2000°W)
Time: 23:59:48
(UTC-04:00)

Daily predictions for brighter satellites

Satellite Brightness Start Highest point End
(mag) Time Altitude Azimuth Time Altitude Azimuth Time Altitude Azimuth
Meteor 2-21 4.4 18:23:55 10° S 18:29:58 75° E 18:36:01 10° NNE
Cosmos 1703 4.1 18:26:32 10° NNE 18:30:01 29° ENE 18:33:26 10° SE
Cosmos 1408 Rocket 3.6 18:25:56 10° N 18:30:23 82° E 18:34:51 10° S
ISS -1.3 18:27:56 10° W 18:30:36 23° SW 18:33:16 10° SSE
Cosmos 2218 Rocket 4.1 18:25:47 10° SSE 18:31:44 55° E 18:37:43 10° NNE
MOS 1 4.3 18:30:08 10° SSE 18:35:42 62° ENE 18:41:19 10° N
SL-16 R/B 2.5 18:33:57 10° NNW 18:39:38 77° WSW 18:45:17 10° SSE
ERS-2 2.5 18:35:58 10° S 18:39:38 70° WSW 18:43:21 10° NNW
Cosmos 1727 Rocket 4.2 18:34:04 10° N 18:40:18 53° ENE 18:46:28 10° SSE
Meteor 1-28 Rocket 3.2 18:37:44 10° NNE 18:41:34 84° ESE 18:45:20 10° S
Cosmos 2341 Rocket 4.4 18:35:43 10° SSW 18:41:57 70° W 18:48:17 10° N
CZ-4 R/B 2.0 18:38:09 10° S 18:42:20 65° WSW 18:46:30 10° NNW
Cosmos 1400 Rocket 3.0 18:38:42 10° N 18:42:41 50° ENE 18:46:34 10° SSE
Cosmos 1242 Rocket 4.1 18:46:47 10° SW 18:50:13 40° WNW 18:53:44 10° N
YAOGAN 1 2.8 18:46:05 10° S 18:50:25 76° WSW 18:54:46 10° NNW
Cosmos 1908 4.3 18:48:46 10° SE 18:51:56 24° E 18:55:07 10° NE
Meteor 2-14 Rocket 4.5 18:48:49 10° S 18:54:56 89° E 19:01:03 10° N
SPOT 3 Rocket 3.5 18:51:24 10° SSE 18:56:35 75° ENE 19:01:48 10° NNW
Cosmos 2237 Rocket 3.9 18:53:57 10° N 18:57:08 15° NE 18:59:36 12° ENE
GP-B 3.0 18:52:52 10° N 18:57:20 77° E 19:01:46 10° S
Meteor 2-16 Rocket 4.4 18:51:53 10° S 18:57:58 82° E 19:04:08 10° N
Cosmos 2056 Rocket 4.0 18:54:07 10° NNW 18:59:25 65° WSW 19:04:36 10° S
CZ-4C R/B 3.6 18:57:21 10° SE 19:00:07 14° ESE 19:01:01 14° E
H-2A R/B 3.8 18:57:14 10° SE 19:00:28 26° ENE 19:03:45 10° NNE
SL-08 R/B 4.4 18:56:00 10° S 19:02:10 78° E 19:08:18 10° N
Cosmos-2242 3.9 18:58:47 10° SSW 19:02:57 52° WNW 19:07:08 10° N
METEOR-M 4.2 18:58:42 10° SSE 19:04:03 84° WSW 19:09:27 10° NNW
USA 267 4.2 19:05:42 14° ENE 19:09:56 26° SE 19:15:14 10° S
ALOS 2.2 19:05:59 10° SSE 19:10:37 70° ENE 19:15:18 10° N
Cosmos 2098 Rocket 4.2 19:07:31 10° SE 19:11:16 28° E 19:15:49 10° NNE
SKYMED 2 3.6 19:07:23 10° NNE 19:11:46 87° W 19:16:07 10° SSW
Cosmos 2151 2.9 19:08:32 10° N 19:12:51 88° E 19:17:07 10° S
NOAA 12 4.1 19:11:43 10° SSE 19:17:01 86° ENE 19:22:23 10° NNW
Cosmos 1452 Rocket 3.4 19:12:01 10° NNW 19:17:18 76° ENE 19:22:34 10° SSE
Cosmos 1743 Rocket 4.0 19:13:21 10° NNW 19:17:41 65° W 19:22:02 10° S
GRACE-2 3.5 19:15:31 10° S 19:18:05 76° E 19:20:40 10° N
SL-24 R/B - RUBIN 2 3.6 19:13:24 10° NW 19:18:25 85° NE 19:22:54 10° SE
COSMOS 2428 3.0 19:13:23 10° NNW 19:18:50 45° ENE 19:23:12 16° SE
GRACE-1 3.5 19:17:44 10° S 19:20:20 87° E 19:22:56 10° N
Cosmos 2333 Rocket 3.2 19:17:11 10° N 19:22:08 29° NE 19:24:25 22° E
Cosmos 2360 Rocket 2.3 19:16:54 10° NNW 19:22:36 84° WSW 19:28:16 10° SSE
BREEZE-M DEB (TANK) 1.3 19:21:32 10° WSW 19:23:38 69° SSE 19:23:53 58° ESE
Cosmos 1626 3.2 19:21:13 10° NNW 19:24:50 47° W 19:28:25 10° SSW
Cosmos 1315 Rocket 2.7 19:20:46 10° N 19:24:50 77° ENE 19:28:56 10° SSE
Abrixas rocket 2.4 19:22:01 10° W 19:25:18 64° NNW 19:26:39 31° ENE
Cosmos 1833 4.1 19:21:34 10° SSW 19:27:16 79° ESE 19:32:55 10° NNE
Cosmos 1842 Rocket 3.9 19:23:03 10° SSW 19:27:31 72° W 19:31:59 10° N
Cosmos 2322 Rocket 4.1 19:24:11 10° NW 19:29:06 32° WSW 19:33:59 10° SSW
Cosmos 2219 3.9 19:26:42 10° SSE 19:31:42 31° ESE 19:34:37 20° ENE
DELTA 2 R/B (1) 4.3 19:28:14 10° WSW 19:33:30 44° S 19:36:42 22° SE
FengYun 1-2 T 4.1 19:29:05 10° SSE 19:34:32 67° ENE 19:39:59 10° N
Cosmos 2221 2.4 19:30:26 10° S 19:34:40 62° E 19:38:59 10° NNE
Spot 2 Rocket 4.4 19:34:19 26° ENE 19:34:47 27° ENE 19:38:58 10° N
MOS 1-B Rocket 4.3 19:31:49 21° ESE 19:35:04 39° ENE 19:40:39 10° N
Resurs 01 Rocket 2.6 19:36:12 27° ENE 19:36:12 27° ENE 19:39:38 10° N
Meteor 2-1 Rocket 4.4 19:30:33 10° SSW 19:36:21 83° W 19:42:17 10° N
ATLAS 5 CENTAUR R/B 4.4 19:39:12 10° NNW 19:41:11 12° N 19:43:15 10° NNE
Aureole 2 Rocket 3.6 19:37:48 10° N 19:40:49 32° NE 19:40:49 32° NE
Cosmos 2058 4.1 19:37:57 10° NNW 19:41:57 44° W 19:45:54 10° SSW
CSL-04 DEB 4.4 19:40:02 27° SE 19:42:02 55° ENE 19:46:01 10° N
RESURS DK-1 3.0 19:38:24 10° NW 19:42:28 55° WSW 19:46:29 10° S
Cosmos 921 Rocket 3.3 19:38:09 10° NNW 19:42:38 72° WSW 19:47:00 10° S
Cosmos 1535 Rocket 4.5 19:40:22 10° SSE 19:46:19 55° E 19:52:16 10° NNE
USA 234 3.9 19:43:39 25° ENE 19:46:56 42° NNE 19:53:02 10° NW
Cosmos 44 3.7 19:43:43 10° S 19:46:58 33° SE 19:46:58 33° SE
Cosmos 2322 4.1 19:44:45 10° NNW 19:50:26 64° WSW 19:56:04 10° SSE
Lacrosse 5 rocket 3.5 19:47:24 10° WNW 19:50:46 21° NNW 19:52:59 15° NNE
Resurs 1-3 4.4 19:52:19 32° NE 19:52:19 32° NE 19:55:32 10° N
SJ-6B 2.5 19:50:20 38° SSE 19:51:41 77° ENE 19:55:26 10° N
Cosmos 2084 4.5 19:53:36 10° NNW 19:56:14 27° NNE 19:56:14 27° NNE
Iridium 4 Rocket 3.8 19:53:33 10° S 19:59:02 80° W 20:04:55 10° N
Thor Agena Rocket 3.5 19:53:54 10° NNE 19:59:03 83° WNW 20:04:06 10° SSW
Atlas Centaur 2 4.1 19:56:22 10° SW 19:59:30 16° S 20:01:19 14° SSE
Cosmos 1048 Rocket 3.8 19:54:50 10° S 19:59:55 68° ESE 20:05:01 10° NNE
FREGAT/IRIS 3.7 20:00:46 29° SSW 20:01:53 43° W 20:04:46 10° NNW
Cosmos 44 Rocket 3.4 19:57:57 10° SSW 20:01:58 48° SE 20:01:58 48° SE
NOSS 0 Rocket 4.1 19:57:33 10° NNW 20:03:34 51° NE 20:04:53 44° E
Gbstr 26 Del rocket 3.6 19:59:28 10° WNW 20:04:37 78° NNE 20:06:21 48° ESE
Envisat 3.1 20:09:18 52° ENE 20:09:18 52° ENE 20:14:09 10° N
Cosmos 2219 Rocket 2.0 20:07:02 10° NNW 20:12:39 71° ENE 20:13:48 55° ESE
Sich 1 2.9 20:09:02 10° N 20:13:24 83° ENE 20:13:24 83° ENE
Cosmos 1821 Rocket 4.0 20:11:44 10° SSW 20:17:52 78° W 20:24:10 10° N
Cosmos 1805 Rocket 4.1 20:13:41 10° NNW 20:18:00 59° W 20:20:41 22° SSW
Cosmos 1934 Rocket 4.0 20:19:01 10° S 20:25:22 89° W 20:31:48 10° N
SL-8 R/B 3.7 20:21:41 10° WSW 20:26:18 82° WSW 20:26:18 82° WSW
Cosmos 1666 Rocket 3.7 20:22:14 10° NNW 20:26:18 70° WNW 20:26:18 70° WNW
Cosmos 158 Rocket 4.4 20:22:19 10° SW 20:27:18 60° WNW 20:32:27 10° NNE
Cosmos 1633 Rocket 3.7 20:31:28 10° NNW 20:34:50 50° NNW 20:34:50 50° NNW
Cosmos 1331 Rocket 4.2 20:32:16 10° NNW 20:36:36 59° N 20:36:36 59° N
Meteor 2-3 Rocket 4.4 20:34:03 10° N 20:38:09 43° NNE 20:38:09 43° NNE
BREEZE M DEB (TANK) 4.4 20:37:41 10° WNW 20:39:03 20° WNW 20:39:03 20° WNW
Cosmos 2237 Rocket 2.4 20:36:37 10° NNW 20:41:26 58° NNE 20:41:26 58° NNE
Cosmos 1269 Rocket 4.4 20:37:29 10° SSW 20:42:42 62° WNW 20:46:03 22° N
In-Cosmos 22 Rocket 4.3 20:37:21 10° NNW 20:43:03 76° W 20:43:56 63° SSW
Cosmos 2123 Rocket 4.2 20:37:44 10° NNW 20:43:55 67° W 20:47:28 27° S
CZ-4C R/B 2.5 20:42:14 10° SW 20:46:18 57° SW 20:46:18 57° SW
SL-16 R/B 3.6 20:45:56 10° NNW 20:49:02 27° NNE 20:49:02 27° NNE
Cosmos 1605 Rocket 3.9 20:45:50 10° S 20:51:58 82° W 20:58:06 10° N
USA 267 3.1 20:53:05 80° ENE 20:53:30 87° SE 21:00:03 10° SW
COSMOS 2428 4.3 20:58:01 10° NW 21:02:54 30° WSW 21:05:17 22° SW
BREEZE-M DEB (TANK) 4.0 20:58:16 10° W 21:03:07 41° W 21:03:07 41° W
Cosmos 1980 4.2 20:59:41 10° NNW 21:04:03 54° NW 21:04:03 54° NW
Cosmos 2333 Rocket 2.8 21:01:08 10° NW 21:06:27 53° W 21:06:27 53° W
Resurs 01 Rocket 3.6 21:13:46 26° WNW 21:13:46 26° WNW 21:16:18 10° NNW
Cosmos 2219 4.2 21:10:11 10° SW 21:15:40 45° WNW 21:16:40 41° NNW
ATLAS 5 CENTAUR R/B 4.4 21:24:34 10° NNW 21:26:32 15° N 21:26:32 15° N
USA 234 3.6 21:31:01 59° NW 21:31:01 59° NW 21:36:12 10° NW
Lacrosse 5 rocket 4.5 21:28:20 10° NW 21:28:40 11° NNW 21:28:40 11° NNW
Cosmos 2219 Rocket 4.5 21:52:18 10° WNW 21:55:33 18° W 21:55:33 18° W
